Regional Weather Roundup
Issued by NWS

Home | Current Version | Previous Version | Text Only | Print | Product List | Glossary On
Versions: 1 2 3 4 5 6 7 8 9 10 11 12 13 14 15 16 17 18 19 20 21 22 23 24 25 26 27 28 29 30 31 32 33 34 35 36 37 38 39 40 41 42 43 44 45 46 47 48 49 50
000
ASUS43 KTOP 062359
RWRKS

WEATHER ROUNDUP FOR KANSAS
NATIONAL WEATHER SERVICE GOODLAND KS
600 PM CST TUE DEC 06 2016

NOTE:  "FAIR" INDICATES FEW OR NO CLOUDS BELOW 12,000 FEET WITH NO
SIGNIFICANT WEATHER AND/OR OBSTRUCTIONS TO VISIBILITY.

KSZ001>006-013>018-027>032-041>047-070100-
NORTHWEST KANSAS

CITY           SKY/WX    TMP DP  RH WIND       PRES   REMARKS
GOODLAND       MOCLDY    21  -1  38 SE6       29.96S
6HR MIN TEMP:  21; 6HR MAX TEMP:  34;

HAYS           PTCLDY    32  11  41 SE3       30.08R
HILL CITY      CLOUDY    25   6  44 N3        30.06R
6HR MIN TEMP:  25; 6HR MAX TEMP:  38;

RUSSELL        CLOUDY    33   8  35 CALM      30.07R
6HR MIN TEMP:  32; 6HR MAX TEMP:  39;

$$

KSZ061>065-074>080-084>089-070100-
SOUTHWEST KANSAS

CITY           SKY/WX    TMP DP  RH WIND       PRES   REMARKS
DODGE CITY     PTCLDY    29  11  47 SE7       30.06R
6HR MIN TEMP:  29; 6HR MAX TEMP:  37;

ELKHART          N/A     26   0  32 SE9         N/A
GARDEN CITY    CLOUDY    31   3  30 SE7       30.02F
6HR MIN TEMP:  31; 6HR MAX TEMP:  37;

GREAT BEND     PTCLDY    34  10  37 E3        30.09R
LIBERAL        MOCLDY    34   7  32 SE5       30.03S
$$

KSZ066>073-081>083-090>101-070100-
SOUTHEAST KANSAS

CITY           SKY/WX    TMP DP  RH WIND       PRES   REMARKS
CHANUTE        PTCLDY    34  16  47 N5        30.10S
6HR MIN TEMP:  34; 6HR MAX TEMP:  43;

COFFEYVILLE    MOCLDY    37  19  48 N3        30.12R
6HR MIN TEMP:  36; 6HR MAX TEMP:  43;

HUTCHINSON     MOCLDY    29  16  58 CALM      30.10S
6HR MIN TEMP:  27; 6HR MAX TEMP:  42;

MEDICINE LODGE   N/A     35  15  44 NE3       30.09F
NEWTON         CLOUDY    29  17  61 N7        30.10F
PARSONS        CLOUDY    34  19  54 N6        30.11S
6HR MIN TEMP:  34; 6HR MAX TEMP:  43;

WICHITA INTL   CLOUDY    36  14  40 N5        30.11R
6HR MIN TEMP:  35; 6HR MAX TEMP:  41;

WICHITA JABRA  CLOUDY    33  18  53 NW5       30.11R
6HR MIN TEMP:  31; 6HR MAX TEMP:  41;

WINFIELD       PTCLDY    34  22  61 NW6       30.13R
6HR MIN TEMP:  34; 6HR MAX TEMP:  43;

$$

KSZ007>012-019>026-033>040-048>060-102>105-070100-
NORTHEAST KANSAS

CITY           SKY/WX    TMP DP  RH WIND       PRES   REMARKS
CONCORDIA      CLEAR     30  12  47 CALM      30.09R
6HR MIN TEMP:  29; 6HR MAX TEMP:  38;

EMPORIA        PTCLDY    35  10  35 CALM      30.11R
6HR MIN TEMP:  34; 6HR MAX TEMP:  40;

LAWRENCE       PTCLDY    28  19  69 CALM      30.12R
6HR MIN TEMP:  27; 6HR MAX TEMP:  40;

MANHATTAN      PTCLDY    34  14  43 W5        30.12R
6HR MIN TEMP:  32; 6HR MAX TEMP:  41;

OLATHE IND     CLEAR     31  15  52 W3        30.11R
6HR MIN TEMP:  31; 6HR MAX TEMP:  38;

OLATHE EXE     CLEAR     32  13  45 W3        30.11R
6HR MIN TEMP:  32; 6HR MAX TEMP:  37;

SALINA         CLOUDY    35  15  44 CALM      30.11R
6HR MIN TEMP:  35; 6HR MAX TEMP:  42;

TOPEKA BILLARD PTCLDY    31  16  54 CALM      30.12R
6HR MIN TEMP:  31; 6HR MAX TEMP:  40;

TOPEKA FORBES  PTCLDY    30  15  53 W6        30.11R
6HR MIN TEMP:  30; 6HR MAX TEMP:  40;

$$




USA.gov is the U.S. government's official web portal to all federal, state and local government web resources and services.